Location: Namasale
(1.5000°N, 32.6167°E)
Time: 18:09:23
(UTC+00:00)

Courier 1B - Pass Details

Date: 22 April 2021
Orbit: 962 x 1209 km, 28.3° (Epoch: 18 May)

Event Time Altitude Azimuth Distance (km) Brightness Sun altitude
Rises 17:37:34 0° 294° (WNW) 3,688 11.8 -26.3°
Reaches altitude 10° 17:40:11 10° 291° (WNW) 2,766 10.9 -27.0°
Maximum altitude 17:46:52 66° 210° (SSW) 1,134 7.8 -28.6°
Enters shadow 17:47:53 59° 169° (SSE) 1,205 7.7 -28.8°
Drops below altitude 10° 17:54:00 10° 129° (SE) 2,946 - -30.3°
Sets 17:56:53 0° 126° (SE) 3,943 - -31.0°
